Regional Weather Roundup
Issued by NWS

Home | Current Version | Previous Version | Graphics & Text | Print | Product List | Glossary Off
Versions: 1 2 3 4 5 6 7 8 9 10 11 12 13 14 15 16 17 18 19 20 21 22 23 24 25 26 27 28 29 30 31 32 33 34 35 36 37 38 39 40 41 42 43 44 45 46 47 48 49 50

000
ASUS43 KDTX 211110
RWRMI
MICHIGAN HOURLY REGIONAL WEATHER ROUNDUP
NATIONAL WEATHER SERVICE DETROIT/PONTIAC MI
700 AM EDT TUE OCT 21 2014

NOTE: "FAIR" INDICATES FEW OR NO CLOUDS BELOW 12,000 FEET WITH NO
SIGNIFICANT WEATHER AND/OR OBSTRUCTION TO VISIBILITY.

MIZ047>049-052>055-059>063-066>070-074>076-081>083-211200-
SOUTHEAST LOWER MICHIGAN

CITY           SKY/WX    TMP DP  RH WIND       PRES   REMARKS
ADRIAN         CLOUDY    47  43  86 N10       29.96R
ALMA           CLOUDY    46  44  91 N6        30.00R
ANN ARBOR      CLOUDY    48  42  80 NW9       29.94R
BAD AXE        CLOUDY    45  42  91 N12G17    29.95R
DETROIT CITY   CLOUDY    50  45  83 NW8       29.93R HAZE
DETROIT        CLOUDY    49  43  80 NW8       29.94R
FLINT          CLOUDY    48  44  86 N9        29.97R
GROSSE ILE     CLOUDY    48  45  87 NW7       29.91R
HILLSDALE      CLOUDY    47  45  95 NW8       29.96R
HOWELL         DRIZZLE   46  44  94 NW7       29.95R

CITY           SKY/WX    TMP DP  RH WIND       PRES   REMARKS
JACKSON        CLOUDY    46  43  89 VRB7      29.97R
LAMBERTVILLE   CLOUDY    50  43  76 NW5       29.94R
LANSING        CLOUDY    47  42  83 NW8       29.99R
LAPEER         NOT AVBL
MASON          CLOUDY    45  43  91 NW8       29.97R FOG
MONROE         CLOUDY    48  45  87 NW5       29.92R
MT. CLEMENS    CLOUDY    47  47  99 NW8       29.90R
PONTIAC        DRIZZLE   46  44  93 N10       29.92R FOG
PORT HOPE        N/A     47  41  80 N16G24    29.94R
PORT HURON     CLOUDY    46  45  93 NW9       29.91R
TRI CITIES     CLOUDY    48  41  76 N12       29.99R
YPSILANTI      CLOUDY    51  43  74 NW8       29.94R
$$
MIZ043>046-050>051-056>058-064>065-071>073-077>080-211200-
SOUTHWEST LOWER MICHIGAN

CITY           SKY/WX    TMP DP  RH WIND       PRES   REMARKS
BATTLE CREEK   CLOUDY    47  41  80 NW10      30.00R
BENTON HARBOR  CLOUDY    48  44  86 VRB6      30.02R
BIG RAPIDS     CLOUDY    46  46 100 N8        30.01R
COLDWATER      CLOUDY    47  45  93 NW6       29.99R
HOLLAND        CLOUDY    49  42  77 NW5       30.03R
GRAND RAPIDS   LGT RAIN  47  43  86 NW9       30.01R
KALAMAZOO      CLOUDY    46  42  86 NW10      30.01R
MARSHALL       CLOUDY    45  41  86 NW6       29.98R
MUSKEGON       CLOUDY    47  43  86 N10       30.04R
$$
MIZ016>042-211200-
NORTHERN LOWER MICHIGAN

CITY           SKY/WX    TMP DP  RH WIND       PRES   REMARKS
ALPENA         CLOUDY    43  37  79 N15       30.03R
BEAVER ISLAND  CLOUDY    44  36  74 N9        30.10R
BELLAIRE       CLOUDY    45  38  77 N5        30.07R
CADILLAC       DRIZZLE   42  41  97 N7        30.02R
CHARLEVOIX     CLOUDY    45  37  75 NE9       30.10R
FRANKFORT      CLOUDY    48  39  72 N10G16    30.07R
GAYLORD        CLOUDY    40  36  86 NE6       30.04R
GRAYLING       CLOUDY    42  39  92 N10       30.04R
HARBOR SPRINGS CLOUDY    44  36  75 N10       30.07R
HOUGHTON LAKE  CLOUDY    42  39  89 N10       30.02R
MANISTEE       CLOUDY    46  39  76 N7        30.07R
OSCODA         CLOUDY    44  40  83 N13G21    29.98R
PELLSTON       CLOUDY    43  35  73 NE12      30.08R
TRAVERSE CITY  CLOUDY    47  37  68 NE10G20   30.05R
$$
MIZ007>008-015-211200-
EASTERN UPPER MICHIGAN

CITY           SKY/WX    TMP DP  RH WIND       PRES   REMARKS
KINROSS        CLEAR     37  34  87 N9        30.10R
MACKINAC ISLAN CLOUDY    41  33  73 N14G21    30.08R
NEWBERRY       CLEAR     36  34  91 N6        30.11R
S. S. MARIE    CLEAR     38  30  73 NE7       30.10R
$$
MIZ004>006-011>014-085-211200-
CENTRAL UPPER MICHIGAN

CITY           SKY/WX    TMP DP  RH WIND       PRES   REMARKS
MANISTIQUE     CLOUDY    41  37  85 N9        30.12R
ESCANABA       CLOUDY    43  34  70 NE8G16    30.14R
MENOMINEE      CLOUDY    43  37  81 N8        30.14R
SAWYER-GWINN   CLOUDY    37  36  93 N10       30.16R
$$
MIZ001>003-009>011-084-211200-
WESTERN UPPER MICHIGAN

CITY           SKY/WX    TMP DP  RH WIND       PRES   REMARKS
IRON MOUNTAIN  CLOUDY    40  34  79 NW10      30.15R
HOUGHTON       CLOUDY    38  31  76 NE3       30.20R
COPPER HARBOR    N/A     40  34  79 E6        30.20R
IRONWOOD       CLOUDY    39  37  93 NE3       30.18R
$$

ABBREVIATIONS USED IN REMARKS
   TC - TEMPERATURE IN CELSIUS
  WCI - WIND CHILL INDEX
   HX - HEAT INDEX
  VSB - VISIBILITY



USA.gov is the U.S. government's official web portal to all federal, state and local government web resources and services.